Weather in Gorodenka

Ukraine / Ivano-Frankovsk District     48˚40′33″N   25˚29′45″E
temp.,
°C
wind,
m/s
gust,
m/s
humid.,
%
clouds,
%
prec.,
mm/h
press.,
hPa
HPBL,
m
28 november, sat
sat2823:00+2˚wnw2597100 0.4 1022234
02:00+2˚w2598100 1.1 1021254
05:00+2˚nw3597100 0.8 1020304
08:00+2˚wnw2491100 0.8 1020341
11:00+2˚nw3489100 0.1 1020378
14:00+3˚nw3473100 0.1 1019730
17:00+2˚wnw2583100 0.1 1019580
20:00wsw118872 0.1 102023
29 november, sun
sun2923:00−1˚wsw239457 0.0 102097
02:00−1˚w369573 0.1 1020306
05:00−1˚nw358894 0.1 1020390
08:00−1˚w229597 0.4 1021154
11:00wsw2287100 0.6 1021326
14:00+1˚wnw1274100 0.6 1021554
17:00−1˚w018490 0.0 102121
20:00−1˚w129291 0.1 102240
30 november, mon
mon3023:00−1˚wnw119393 0.0 102328
02:00−2˚nw129079 0.1 102452
05:00−2˚nw229150 0.0 102496
08:00−3˚nw249344 0.0 1026128
11:00−1˚nw348113 0.0 1027423
14:00−1˚nw347744 0.0 1028537
17:00−2˚nw238080 0.0 1029170
20:00−2˚nw247683 0.0 1030442
1 december, tue
tue123:00−2˚w227788 0.0 103076
02:00−3˚w117861 0.0 103030
05:00−3˚se11800 0.0 103021
08:00−4˚sse22850 0.0 103051
11:00−2˚se35720 0.0 1029367
14:00ese35660 0.0 1027426
17:00−2˚ese36780 0.0 1027169
20:00−3˚ese37800 0.0 1028219
2 december, wed
wed223:00−4˚ese36830 0.0 1028167
02:00−4˚ese35860 0.0 1027129
05:00−5˚ese24890 0.0 102796
08:00−5˚ese24950 0.0 102794
11:00−2˚ese348425 0.0 1027277
14:00ese347928 0.0 1025411
17:00−2˚ese359242 0.0 1026137
20:00−1˚se478861 0.0 1026522